Honolulu, HI

8:27 PM HST on November 19, 2017 (GMT -1000)
Honolulu International

Weather History for PHNL - July, 2013

Change the Weather History Date:

Friday, July 5, 2013

  Actual Average Record
Temperature  
Mean Temperature 78 °F 81 °F  
Max Temperature 86 °F 88 °F 91 °F (1995)
Min Temperature 70 °F 74 °F 69 °F (1955)
Degree Days  
Heating Degree Days 0 0  
Month to date heating degree days 0 0  
Since 1 June heating degree days 0 0  
Since 1 July heating degree days 0 0  
Cooling Degree Days 13 16  
Month to date cooling degree days 67 80  
Year to date cooling degree days 1936 2038  
Since 1 June cooling degree days 476 536  
Growing Degree Days 27 (Base 50)    
Moisture  
Dew Point 65 °F    
Average Humidity 65    
Maximum Humidity 79    
Minimum Humidity 51    
Precipitation  
Precipitation 0.00 in 0.01 in 0.17 in (1996)
Month to date precipitation 0.02 0.05  
Year to date precipitation 8.65 7.88  
Snow  
Snow 0.00 in - - ()
Month to date snowfall 0.0  
Since 1 June snowfall 0.0  
Since 1 July snowfall 0.0  
Snow Depth 0.00 in    
Sea Level Pressure  
Sea Level Pressure 30.01 in    
Wind  
Wind Speed 6 mph (NW)    
Max Wind Speed 16 mph    
Max Gust Speed 20 mph    
Visibility 10 miles    
Events      
T = Trace of Precipitation, MM = Missing Value Source: NWS Daily Summary

Daily Weather History Graph

Daily Weather History Graph

Search for Another Location

Airport or City:

Trip Planner

Search our weather history database for the weather conditions in past years. The results will help you decide how hot, cold, wet, or windy it might be!

Date:

Astronomy

Jul. 05, 2013 Rise Set
Actual Time 5:54 AM HST 7:17 PM HST
Civil Twilight 5:30 AM HST 7:42 PM HST
Nautical Twilight 5:00 AM HST 8:11 PM HST
Astronomical Twilight 4:30 AM HST 8:42 PM HST
Moon 3:56 AM HST (7/5) 5:27 PM HST (7/5)
Length of Visible Light 14h 12m
Length of Day
13h 23m
Waning Crescent, 5% of the Moon is Illuminated
Jul 5
Waning Crescent
Jul 7
New
Jul 15
First Quarter
Jul 22
Full
Jul 29
Last Quarter

Hourly Weather History & Observations

Time (HST) Temp. Heat Index Dew Point Humidity Pressure Visibility Wind Dir Wind Speed Gust Speed Precip Events Conditions
12:53 AM 73.9 °F - 64.9 °F 73% 30.03 in 10.0 mi Calm Calm - N/A   Partly Cloudy
1:53 AM 73.9 °F - 64.0 °F 71% 30.02 in 10.0 mi Calm Calm - N/A   Partly Cloudy
2:53 AM 73.0 °F - 64.0 °F 73% 30.01 in 10.0 mi NNW 3.5 mph - N/A   Partly Cloudy
3:00 AM 73.4 °F - 64.4 °F 73% 30.00 in 10.0 mi NW 4.6 mph - N/A   Partly Cloudy
3:02 AM 73.4 °F - 64.4 °F 73% 30.00 in 10.0 mi NW 4.6 mph - N/A   Partly Cloudy
3:53 AM 73.0 °F - 64.0 °F 73% 30.00 in 10.0 mi NNW 4.6 mph - N/A   Partly Cloudy
4:53 AM 72.0 °F - 64.9 °F 78% 30.01 in 10.0 mi NNW 4.6 mph - N/A   Partly Cloudy
5:53 AM 71.1 °F - 64.0 °F 78% 30.01 in 10.0 mi North 5.8 mph - N/A   Scattered Clouds
6:53 AM 73.0 °F - 64.9 °F 76% 30.02 in 10.0 mi Variable 3.5 mph - N/A   Scattered Clouds
7:53 AM 75.9 °F - 64.9 °F 69% 30.04 in 10.0 mi Calm Calm - N/A   Scattered Clouds
8:53 AM 80.1 °F 81.5 °F 63.0 °F 56% 30.04 in 10.0 mi North 3.5 mph - N/A   Scattered Clouds
9:53 AM 79.0 °F - 64.9 °F 62% 30.04 in 10.0 mi South 6.9 mph - N/A   Scattered Clouds
10:53 AM 81.0 °F 82.7 °F 64.9 °F 58% 30.03 in 10.0 mi South 8.1 mph - N/A   Scattered Clouds
11:53 AM 82.0 °F 83.8 °F 64.9 °F 56% 30.02 in 10.0 mi South 9.2 mph - N/A   Scattered Clouds
12:53 PM 84.0 °F 85.8 °F 64.9 °F 53% 30.01 in 10.0 mi SW 11.5 mph - N/A   Scattered Clouds
1:53 PM 84.9 °F 87.1 °F 66.0 °F 53% 30.00 in 10.0 mi SW 12.7 mph - N/A   Scattered Clouds
2:53 PM 84.0 °F 86.5 °F 66.9 °F 56% 29.98 in 10.0 mi WSW 13.8 mph - N/A   Scattered Clouds
3:53 PM 84.0 °F 86.5 °F 66.9 °F 56% 29.96 in 10.0 mi WSW 12.7 mph - N/A   Scattered Clouds
4:53 PM 82.0 °F 84.5 °F 66.9 °F 60% 29.96 in 10.0 mi Variable 3.5 mph - N/A   Scattered Clouds
5:53 PM 81.0 °F 82.5 °F 64.0 °F 56% 29.96 in 10.0 mi NE 13.8 mph - N/A   Partly Cloudy
6:53 PM 79.0 °F - 64.9 °F 62% 29.99 in 10.0 mi NNE 9.2 mph - N/A   Scattered Clouds
7:53 PM 78.1 °F - 64.9 °F 64% 30.00 in 10.0 mi NNE 9.2 mph - N/A   Scattered Clouds
8:53 PM 77.0 °F - 64.9 °F 66% 30.02 in 10.0 mi NE 3.5 mph - N/A   Scattered Clouds
9:53 PM 77.0 °F - 64.9 °F 66% 30.04 in 10.0 mi NNE 3.5 mph - N/A   Partly Cloudy
10:53 PM 77.0 °F - 64.9 °F 66% 30.05 in 10.0 mi Calm Calm - N/A   Partly Cloudy
11:53 PM 75.0 °F - 66.0 °F 73% 30.05 in 10.0 mi NW 3.5 mph - N/A   Partly Cloudy